This is the latest recevied weather packets stored in our database for station/object SV9TNF-52. If no packets are shown the sender has not sent any weather packets the latest 10 day(s).
| Time | Temp. | Humidity | Pressure | Rain* | Wind** | Luminosity | Snow |
|---|---|---|---|---|---|---|---|
| 1788571649 | 23.33° C | 71% | 1020 hPa | 0 mm | 4.02 m/s, 270° | - | - |
| 1788571349 | 22.78° C | 71% | 1020 hPa | 0 mm | 6.26 m/s, 173° | - | - |
| 1788571049 | 22.78° C | 70% | 1020 hPa | 0 mm | 8.94 m/s, 168° | - | - |
| 1788570749 | 23.33° C | 71% | 1020 hPa | 0 mm | 0.89 m/s, 136° | - | - |
| 1788570449 | 22.78° C | 70% | 1020 hPa | 0 mm | 4.92 m/s, 190° | - | - |
| 1788570149 | 22.78° C | 70% | 1020 hPa | 0 mm | 2.68 m/s, 171° | - | - |
| 1788569849 | 22.78° C | 70% | 1020 hPa | 0 mm | 1.79 m/s, 204° | - | - |
| 1788569549 | 23.33° C | 69% | 1020 hPa | 0 mm | 3.13 m/s, 226° | - | - |
| 1788569249 | 22.78° C | 69% | 1020 hPa | 0 mm | 4.92 m/s, 174° | - | - |
| 1788568949 | 23.33° C | 69% | 1020 hPa | 0 mm | 4.02 m/s, 220° | - | - |
| 1788568648 | 23.33° C | 69% | 1020 hPa | 0 mm | 0.89 m/s, 186° | - | - |
| 1788568349 | 22.78° C | 68% | 1020 hPa | 0 mm | 5.36 m/s, 244° | - | - |
| 1788568048 | 23.33° C | 68% | 1020 hPa | 0 mm | 2.68 m/s, 133° | - | - |
| 1788567748 | 23.33° C | 68% | 1020 hPa | 0 mm | 3.13 m/s, 229° | - | - |
| 1788567449 | 23.33° C | 68% | 1020 hPa | 0 mm | 5.36 m/s, 95° | - | - |
| 1788567148 | 23.33° C | 68% | 1020 hPa | 0 mm | 3.13 m/s, 232° | - | - |
| 1788566848 | 22.78° C | 68% | 1020 hPa | 0 mm | 4.47 m/s, 201° | - | - |
| 1788566548 | 22.78° C | 67% | 1020 hPa | 0 mm | 4.92 m/s, 194° | - | - |
| 1788566248 | 23.33° C | 67% | 1020 hPa | 0 mm | 3.13 m/s, 190° | - | - |
| 1788565948 | 23.33° C | 67% | 1020 hPa | 0 mm | 0 m/s | - | - |
| 1788565674 | 23.89° C | 67% | 1020.3 hPa | 0 mm | 2.24 m/s, 228° | - | - |
| 1788565347 | 23.89° C | 67% | 1020.3 hPa | 0 mm | 0.89 m/s, 215° | - | - |
| 1788565047 | 22.78° C | 67% | 1020.3 hPa | 0 mm | 4.02 m/s, 161° | - | - |
| 1788564748 | 22.78° C | 67% | 1020.3 hPa | 0 mm | 4.47 m/s, 210° | - | - |
| 1788564447 | 22.78° C | 67% | 1020.3 hPa | 0 mm | 3.13 m/s, 171° | - | - |
* Rain latest hour (hover to see other rain measurements)
** Current wind speed in m/s (hover to see current wind gust speed)